Regional Weather Roundup
Issued by NWS Charleston, WV

Current Version | Previous Version | Text Only | Print | Product List | Glossary On
Versions: 1 2 3 4 5 6 7 8 9 10 11 12 13 14 15 16 17 18 19 20 21 22 23 24 25 26 27 28 29 30 31 32 33 34 35 36 37 38 39 40 41 42 43 44 45 46 47 48 49 50
000
ASUS41 KRLX 020310
RWRRLX
West Virginia Regional Weather Roundup
National Weather Service Charleston WV
1000 PM EST SUN MAR 01 2015

Note: "fair" indicates few or no clouds below 12,000 feet with no
significant weather and/or obstructions to visibility.

WVZ003-020400-
Northern Panhandle of West Virginia

CITY           SKY/WX    TMP DP  RH WIND       PRES   REMARKS
WHEELING       CLOUDY    34  32  92 W10       30.18R FOG
$$

WVZ009-020400-
Northwest West Virginia

CITY           SKY/WX    TMP DP  RH WIND       PRES   REMARKS
PARKERSBURG    CLOUDY    38  35  89 SW6       30.25S FOG
$$

WVZ006-020400-
Western West Virginia

CITY           SKY/WX    TMP DP  RH WIND       PRES   REMARKS
HUNTINGTON     LGT RAIN  40  40 100 W5        30.25R FOG
$$

WVZ015-020400-
West Central West Virginia

CITY           SKY/WX    TMP DP  RH WIND       PRES   REMARKS
CHARLESTON     LGT RAIN  43  41  93 NW5       30.24R VSB 1
$$

WVZ022-031-020400-
North Central West Virginia

CITY           SKY/WX    TMP DP  RH WIND       PRES   REMARKS
CLARKSBURG     LGT RAIN  40  39  97 SW7       30.19F
MORGANTOWN     CLOUDY    40  35  83 SW5       30.18F
$$

WVZ025-035-042-045-020400-
Southern West Virginia

CITY           SKY/WX    TMP DP  RH WIND       PRES   REMARKS
BECKLEY        FOG       42  40  92 SW6       30.22F VSB 1/2
LOGAN          FOG       43  43 100 SW5G12    30.20F VSB 3/4
BLUEFIELD      CLOUDY    46  42  86 W10G18    30.24S
LEWISBURG      FOG       36  35  96 S5        30.22F VSB 3/4
$$

WVZ047-020400-
Northern Mountains of West Virginia

CITY           SKY/WX    TMP DP  RH WIND       PRES   REMARKS
ELKINS         RAIN      42  39  89 W8        30.19F
$$

WVZ052-020400-
Eastern Panhandle of West Virginia

CITY           SKY/WX    TMP DP  RH WIND       PRES   REMARKS
MARTINSBURG    CLOUDY    32  28  85 CALM      30.19F FOG
PETERSBURG     MIX PCPN  34  34 100 SE3       30.18R
$$


USA.gov is the U.S. government's official web portal to all federal, state and local government web resources and services.